This demonstration page uses our WeatherBlox Daily Observations layout. Learn more.

Hourly Observations for May 19, 2015

Temp ( °F °C ) Dew Point ( °F °C ) Humidity (%) Winds ( mph kmh ) Pressure ( in mb ) Visibility ( mi km ) Precip ( " mm )
12:15 am 00:15 Clear 46 8 39 4 76 76 NE 7 11 30.36 1028 10 16.09344 0 0
12:35 am 00:35 Clear 46 8 39 4 76 76 ENE 9 15 30.36 1028 10 16.09344 0 0
12:55 am 00:55 Clear 46 8 39 4 76 76 ENE 6 9 30.39 1029 10 16.09344 0 0
1:15 am 01:15 Clear 45 7 39 4 81 81 ENE 6 9 30.36 1028 10 16.09344 0 0
1:35 am 01:35 Clear 45 7 39 4 81 81 ENE 6 9 30.36 1028 10 16.09344 0 0
1:55 am 01:55 Clear 45 7 39 4 81 81 NE 7 11 30.36 1028 10 16.09344 0 0
2:15 am 02:15 Clear 45 7 39 4 81 81 NE 9 15 30.36 1028 10 16.09344 0 0
2:35 am 02:35 Partly Cloudy 45 7 39 4 81 81 NE 7 11 30.36 1028 10 16.09344 0 0
2:55 am 02:55 Mostly Cloudy 45 7 39 4 81 81 ENE 5 7 30.36 1028 10 16.09344 0 0
3:15 am 03:15 Mostly Cloudy 45 7 39 4 81 81 ENE 6 9 30.36 1028 10 16.09344 0 0
3:35 am 03:35 Mostly Cloudy 45 7 39 4 81 81 ENE 5 7 30.36 1028 10 16.09344 0 0
3:55 am 03:55 Cloudy 46 8 39 4 76 76 ENE 12 19 30.33 1027 10 16.09344 0 0
4:15 am 04:15 Cloudy 45 7 39 4 81 81 ENE 10 17 30.36 1028 10 16.09344 0 0
4:35 am 04:35 Cloudy 45 7 37 3 76 76 E 12 19 30.36 1028 10 16.09344 0 0
4:55 am 04:55 Cloudy 45 7 37 3 76 76 E 13 20 30.36 1028 10 16.09344 0 0
5:15 am 05:15 Cloudy 45 7 37 3 76 76 ENE 15 24 30.36 1028 10 16.09344 0 0
5:35 am 05:35 Mostly Cloudy 45 7 37 3 76 76 ENE 15 24 30.36 1028 10 16.09344 0 0
5:55 am 05:55 Partly Cloudy 43 6 37 3 81 81 ENE 12 19 30.33 1027 10 16.09344 0 0
6:15 am 06:15 Clear 43 6 37 3 81 81 ENE 13 20 30.36 1028 10 16.09344 0 0
6:35 am 06:35 Sunny 43 6 37 3 81 81 ENE 12 19 30.36 1028 10 16.09344 0 0
6:55 am 06:55 Sunny 43 6 37 3 81 81 ENE 9 15 30.36 1028 10 16.09344 0 0
7:15 am 07:15 Partly Cloudy 43 6 36 2 76 76 ENE 16 26 30.36 1028 10 16.09344 0 0
7:35 am 07:35 Mostly Cloudy 43 6 36 2 76 76 ENE 10 17 30.36 1028 10 16.09344 0 0
7:55 am 07:55 Mostly Cloudy 43 6 36 2 76 76 E 9 15 30.36 1028 10 16.09344 0 0
8:15 am 08:15 Mostly Cloudy 43 6 36 2 76 76 ENE 13 20 30.36 1028 10 16.09344 0 0
8:35 am 08:35 Cloudy 41 5 36 2 81 81 NE 13 20 30.39 1029 10 16.09344 0 0
8:55 am 08:55 Cloudy 43 6 36 2 76 76 ENE 14 22 30.36 1028 10 16.09344 0 0
9:15 am 09:15 Cloudy 43 6 34 1 71 71 ENE 12 19 30.36 1028 10 16.09344 0 0
9:35 am 09:35 Mostly Cloudy 43 6 36 2 76 76 ENE 10 17 30.36 1028 10 16.09344 0 0
9:55 am 09:55 Mostly Cloudy 43 6 36 2 76 76 ENE 16 26 30.36 1028 10 16.09344 0 0
10:15 am 10:15 Cloudy 43 6 34 1 71 71 ENE 15 24 30.36 1028 10 16.09344 0 0
10:35 am 10:35 Mostly Cloudy 43 6 34 1 71 71 ENE 14 22 30.36 1028 10 16.09344 0 0
10:55 am 10:55 Cloudy 43 6 34 1 71 71 NE 12 19 30.36 1028 10 16.09344 0 0
11:15 am 11:15 Cloudy 43 6 34 1 71 71 NE 7 11 30.39 1029 10 16.09344 0 0
11:35 am 11:35 Cloudy with Light Rain 43 6 34 1 71 71 NNE 7 11 30.39 1029 10 16.09344 0 0
11:55 am 11:55 Cloudy with Light Rain 41 5 36 2 81 81 NE 14 22 30.39 1029 10 16.09344 0.01 0.254
12:15 pm 12:15 Mostly Cloudy with Light Rain 41 5 36 2 81 81 NNE 17 28 30.36 1028 10 16.09344 0 0
12:35 pm 12:35 Partly Cloudy 41 5 36 2 81 81 NNE 15 24 30.3 1026 10 16.09344 0 0
12:55 pm 12:55 Mostly Cloudy with Light Rain 41 5 36 2 81 81 NE 13 20 30.36 1028 10 16.09344 0 0
1:15 pm 13:15 Cloudy 41 5 36 2 81 81 NE 13 20 30.36 1028 10 16.09344 0 0
1:35 pm 13:35 Cloudy with Light Rain 41 5 36 2 81 81 ENE 5 7 30.39 1029 10 16.09344 0 0
1:55 pm 13:55 Cloudy with Light Rain 41 5 36 2 81 81 ENE 3 6 30.39 1029 10 16.09344 0.01 0.254
2:15 pm 14:15 Cloudy with Light Rain 41 5 37 3 87 87 ENE 10 17 30.39 1029 10 16.09344 0.01 0.254
2:35 pm 14:35 Cloudy with Light Rain 41 5 37 3 87 87 ENE 13 20 30.36 1028 10 16.09344 0.02 0.508
2:55 pm 14:55 Cloudy with Light Rain 41 5 37 3 87 87 ENE 18 30 30.3 1026 10 16.09344 0.04 1.016
3:15 pm 15:15 Cloudy with Light Rain 41 5 37 3 87 87 NE 21 33 30.27 1025 10 16.09344 0.02 0.508
3:35 pm 15:35 Cloudy with Rain 41 5 37 3 87 87 NE 20 31 30.27 1025 7 11.265408 0.06 1.524
3:55 pm 15:55 Cloudy with Light Rain 41 5 37 3 87 87 NE 18 30 30.27 1025 7 11.265408 0.1 2.54
4:15 pm 16:15 Cloudy with Light Rain 41 5 39 4 93 93 NE 18 30 30.24 1024 7 11.265408 0.02 0.508
4:35 pm 16:35 Cloudy with Light Drizzle 41 5 37 3 87 87 ENE 18 30 30.24 1024 10 16.09344 0.02 0.508
4:55 pm 16:55 Cloudy 41 5 39 4 93 93 NE 25 41 30.21 1023 10 16.09344 0.02 0.508
5:15 pm 17:15 Mostly Cloudy 41 5 39 4 93 93 NE 24 39 30.18 1022 10 16.09344 0 0
5:35 pm 17:35 Mostly Cloudy 41 5 39 4 93 93 ENE 26 43 30.18 1022 10 16.09344 0 0
5:55 pm 17:55 Cloudy 41 5 39 4 93 93 ENE 20 31 30.18 1022 10 16.09344 0 0
6:15 pm 18:15 Cloudy with Light Drizzle 43 6 39 4 87 87 ENE 22 35 30.18 1022 10 16.09344 0 0
6:35 pm 18:35 Cloudy with Light Rain 41 5 39 4 93 93 NE 17 28 30.18 1022 10 16.09344 0 0
6:55 pm 18:55 Cloudy with Light Rain 41 5 39 4 93 93 NE 18 30 30.18 1022 10 16.09344 0.01 0.254
7:15 pm 19:15 Cloudy with Light Rain 41 5 39 4 93 93 NNE 14 22 30.21 1023 7 11.265408 0 0
7:35 pm 19:35 Cloudy with Rain 41 5 39 4 93 93 NNE 13 20 30.21 1023 4 6.437376 0.03 0.762
7:55 pm 19:55 Cloudy with Light Rain 41 5 39 4 93 93 NNE 13 20 30.21 1023 5 8.04672 0.06 1.524
8:15 pm 20:15 Cloudy with Rain 41 5 39 4 93 93 NNE 13 20 30.21 1023 4 6.437376 0.02 0.508
8:35 pm 20:35 Cloudy with Rain 41 5 39 4 93 93 NNE 9 15 30.21 1023 5 8.04672 0.05 1.27
8:55 pm 20:55 Cloudy with Rain 41 5 39 4 93 93 NNE 10 17 30.21 1023 4 6.437376 0.11 2.794
9:15 pm 21:15 Cloudy with Light Rain 41 5 39 4 93 93 NNE 10 17 30.21 1023 5 8.04672 0.02 0.508
9:35 pm 21:35 Cloudy with Light Rain 41 5 39 4 93 93 NNE 9 15 30.24 1024 5 8.04672 0.06 1.524
9:55 pm 21:55 Cloudy with Rain 41 5 39 4 93 93 N 9 15 30.24 1024 4 6.437376 0.1 2.54
10:15 pm 22:15 Cloudy with Light Rain 41 5 39 4 93 93 NNE 8 13 30.24 1024 5 8.04672 0.02 0.508
10:35 pm 22:35 Cloudy with Drizzle 41 5 39 4 93 93 NNE 8 13 30.27 1025 5 8.04672 0.03 0.762
10:55 pm 22:55 Cloudy with Rain 41 5 39 4 93 93 NNE 8 13 30.27 1025 5 8.04672 0.03 0.762
11:15 pm 23:15 Cloudy with Light Rain 41 5 39 4 93 93 NNE 8 13 30.27 1025 4 6.437376 0.05 1.27
11:35 pm 23:35 Cloudy with Rain 41 5 39 4 93 93 NE 9 15 30.27 1025 5 8.04672 0.06 1.524
11:55 pm 23:55 Cloudy with Drizzle 41 5 39 4 93 93 NE 9 15 30.24 1024 5 8.04672 0.08 2.032

Powered by AerisWeather